Modesto, CA

10:24 AM PST on November 18, 2017 (GMT -0800)
Modesto City-County-Sham

Weather History for KMOD - January, 2014

Change the Weather History Date:

Sunday, January 19, 2014

  Actual Average Record
Temperature  
Mean Temperature 50 °F -  
Max Temperature 69 °F 56 °F 74 °F (1981)
Min Temperature 31 °F 40 °F 26 °F (1943)
Degree Days  
Heating Degree Days 15 17  
Month to date heating degree days 297 340  
Since 1 July heating degree days 1274 1237  
Cooling Degree Days 0 0  
Month to date cooling degree days 0 0  
Year to date cooling degree days 0 0  
Moisture  
Dew Point 34 °F    
Average Humidity 61    
Maximum Humidity 92    
Minimum Humidity 29    
Precipitation  
Precipitation 0.00 in 0.08 in 0.93 in (2010)
Month to date precipitation T 1.57  
Year to date precipitation T 1.57  
Since 1 July precipitation 1.49  
Snow  
Snow 0.00 in - - ()
Month to date snowfall 0.0  
Since 1 July snowfall 0.0  
Snow Depth -    
Sea Level Pressure  
Sea Level Pressure 30.12 in    
Wind  
Wind Speed 1 mph (ESE)    
Max Wind Speed 6 mph    
Max Gust Speed 8 mph    
Visibility 4 miles    
Events      
T = Trace of Precipitation, MM = Missing Value Source: NWS Daily Summary

Daily Weather History Graph

Daily Weather History Graph

Search for Another Location

Airport or City:

Trip Planner

Search our weather history database for the weather conditions in past years. The results will help you decide how hot, cold, wet, or windy it might be!

Date:

Astronomy

Jan. 19, 2014 Rise Set
Actual Time 7:16 AM PST 5:13 PM PST
Civil Twilight 6:47 AM PST 5:41 PM PST
Nautical Twilight 6:15 AM PST 6:13 PM PST
Astronomical Twilight 5:44 AM PST 6:45 PM PST
Moon 8:51 PM PST (1/19) 8:53 AM PST (1/19)
Length of Visible Light 10h 54m
Length of Day
9h 57m
Waning Gibbous, 89% of the Moon is Illuminated
Jan 19
Waning Gibbous
Jan 23
Last Quarter
Jan 30
New
Feb 6
First Quarter
Feb 14
Full

Hourly Weather History & Observations

Time (PST) Temp. Windchill Dew Point Humidity Pressure Visibility Wind Dir Wind Speed Gust Speed Precip Events Conditions
12:53 AM 37.9 °F 35.5 °F 33.1 °F 83% 30.09 in 5.0 mi East 3.5 mph - N/A   Haze
1:53 AM 39.0 °F 36.8 °F 33.1 °F 79% 30.10 in 5.0 mi East 3.5 mph - N/A   Haze
2:53 AM 37.0 °F 34.5 °F 32.0 °F 82% 30.10 in 5.0 mi ESE 3.5 mph - N/A   Haze
3:53 AM 36.0 °F - 32.0 °F 86% 30.10 in 5.0 mi Calm Calm - N/A   Clear
4:53 AM 34.0 °F - 30.9 °F 89% 30.11 in 4.0 mi Calm Calm - N/A   Clear
5:53 AM 34.0 °F - 30.9 °F 89% 30.12 in 4.0 mi Calm Calm - N/A   Clear
6:53 AM 32.0 °F - 30.0 °F 92% 30.14 in 3.0 mi Calm Calm - N/A   Clear
7:53 AM 33.1 °F - 30.0 °F 89% 30.15 in 3.0 mi Calm Calm - N/A   Clear
8:03 AM 33.8 °F - 30.2 °F 87% 30.14 in 2.5 mi Calm Calm - N/A   Clear
8:15 AM 35.6 °F - 32.0 °F 87% 30.15 in 3.0 mi Calm Calm - N/A   Clear
8:53 AM 41.0 °F - 34.0 °F 76% 30.16 in 5.0 mi Calm Calm - N/A   Haze
9:53 AM 48.9 °F - 34.0 °F 56% 30.17 in 5.0 mi Calm Calm - N/A   Haze
10:53 AM 55.0 °F - 33.1 °F 43% 30.17 in 5.0 mi Calm Calm - N/A   Haze
11:53 AM 60.1 °F - 35.1 °F 39% 30.14 in 5.0 mi Calm Calm - N/A   Haze
12:53 PM 64.0 °F - 34.0 °F 33% 30.12 in 5.0 mi Calm Calm - N/A   Haze
1:53 PM 66.9 °F - 34.0 °F 30% 30.09 in 5.0 mi Calm Calm - N/A   Haze
2:53 PM 66.9 °F - 33.1 °F 28% 30.08 in 4.0 mi Calm Calm - N/A   Haze
3:53 PM 68.0 °F - 33.1 °F 27% 30.07 in 4.0 mi Calm Calm - N/A   Haze
4:53 PM 64.0 °F - 36.0 °F 35% 30.07 in 4.0 mi West 6.9 mph - N/A   Haze
5:53 PM 57.9 °F - 37.0 °F 46% 30.08 in 6.0 mi Calm Calm - N/A   Haze
6:53 PM 53.1 °F - 37.0 °F 55% 30.09 in 5.0 mi Calm Calm - N/A   Haze
7:53 PM 50.0 °F - 36.0 °F 59% 30.10 in 5.0 mi Calm Calm - N/A   Haze
8:53 PM 48.9 °F - 36.0 °F 61% 30.11 in 5.0 mi Calm Calm - N/A   Haze
9:53 PM 42.1 °F - 35.1 °F 76% 30.12 in 4.0 mi Calm Calm - N/A   Haze
10:53 PM 42.1 °F - 35.1 °F 76% 30.13 in 4.0 mi Calm Calm - N/A   Haze
11:53 PM 39.0 °F - 35.1 °F 86% 30.13 in 4.0 mi Calm Calm - N/A   Clear